FW8327 Weather Reports


Display with metric or nautical units.
time (UTC)temp
F
wind
direction
speed
MPH
gust
MPH
rain 1hr
in
rain 24hr
in
rain mn
in
humidity
%
barometer
mb
20260508135134 55 257 0.0 0.0 0.00 0.00 0.00 72 1011.7
20260508134630 54 235 0.0 0.0 0.00 0.00 0.00 71 1011.4
20260508134128 54 204 0.0 0.0 0.00 0.00 0.00 71 1011.5
20260508133624 54 222 0.0 0.0 0.00 0.00 0.00 72 1011.6
20260508133122 54 257 0.0 0.0 0.00 0.00 0.00 72 1011.8
20260508132619 54 197 0.0 0.0 0.00 0.00 0.00 73 1011.7
20260508132116 54 238 0.0 0.0 0.00 0.00 0.00 71 1011.6
20260508131612 53 153 0.0 0.0 0.00 0.00 0.00 75 1011.6
20260508131109 53 266 0.0 0.0 0.00 0.00 0.00 75 1011.5
20260508130605 53 251 0.0 0.0 0.00 0.00 0.00 73 1011.5
20260508125557 53 230 0.0 0.0 0.00 0.00 0.00 75 1011.8
20260508125055 53 190 0.0 0.0 0.00 0.00 0.00 77 1011.6
20260508124553 53 155 0.0 0.0 0.00 0.00 0.00 80 1011.5
20260508124050 52 158 0.0 0.0 0.00 0.00 0.00 81 1011.6
20260508123548 52 163 0.0 0.0 0.00 0.00 0.00 80 1011.8
20260508123045 52 156 0.0 0.0 0.00 0.00 0.00 82 1011.6
20260508122541 52 161 0.0 0.0 0.00 0.00 0.00 81 1011.4
20260508122038 51 156 0.0 0.0 0.00 0.00 0.00 80 1011.6
20260508121537 51 156 0.0 0.0 0.00 0.00 0.00 82 1011.4
20260508121034 51 153 0.0 0.0 0.00 0.00 0.00 83 1011.5
20260508120531 50 157 0.0 0.0 0.00 0.00 0.00 85 1011.3
20260508120030 49 155 0.0 0.0 0.00 0.00 0.00 87 1011.5
20260508115527 49 155 0.0 0.0 0.00 0.00 0.00 87 1011.5
20260508115023 49 153 0.0 0.0 0.00 0.00 0.00 86 1011.5
20260508114521 49 151 0.0 0.0 0.00 0.00 0.00 86 1011.4
20260508114017 49 157 0.0 0.0 0.00 0.00 0.00 86 1011.7
20260508113515 49 165 0.0 0.0 0.00 0.00 0.00 86 1011.8
20260508113012 49 165 0.0 0.0 0.00 0.00 0.00 86 1011.7
20260508112508 49 165 0.0 0.0 0.00 0.00 0.00 86 1011.4
20260508112005 49 166 0.0 0.0 0.00 0.00 0.00 86 1011.4
20260508111502 49 166 0.0 0.0 0.00 0.00 0.00 86 1011.3
20260508110959 49 167 0.0 0.0 0.00 0.00 0.00 85 1011.4
20260508110457 49 167 0.0 0.0 0.00 0.00 0.00 85 1011.4
20260508105956 49 167 0.0 0.0 0.00 0.00 0.00 84 1011.3
20260508105453 50 168 0.0 0.0 0.00 0.00 0.00 82 1011.2
20260508104950 50 172 0.0 0.0 0.00 0.00 0.00 80 1011.4
20260508104448 50 172 0.0 0.0 0.00 0.00 0.00 79 1011.2
20260508103944 50 176 0.0 0.0 0.00 0.00 0.00 79 1011.4
20260508103441 50 178 0.0 0.0 0.00 0.00 0.00 79 1011.4
20260508102938 50 172 0.0 0.0 0.00 0.00 0.00 79 1011.4
20260508102437 50 185 0.0 0.0 0.00 0.00 0.00 79 1011.3
20260508101933 50 182 0.0 0.0 0.00 0.00 0.00 79 1011.1
20260508101431 50 229 0.0 0.0 0.00 0.00 0.00 80 1011.4
20260508100928 50 228 0.0 0.0 0.00 0.00 0.00 78 1011.4
20260508100427 50 174 0.0 0.0 0.00 0.00 0.00 80 1011.2
20260508095922 50 267 0.0 0.0 0.00 0.00 0.00 81 1011.2
20260508095420 50 292 0.0 0.0 0.00 0.00 0.00 78 1011.3
20260508094917 51 244 0.0 0.0 0.00 0.00 0.00 78 1011.3
20260508094414 51 294 0.0 0.0 0.00 0.00 0.00 76 1011.3
20260508093910 51 262 0.0 0.0 0.00 0.00 0.00 76 1011.4
20260508093408 50 263 2.0 3.0 0.00 0.00 0.00 80 1011.5
20260508092905 50 276 1.0 2.0 0.00 0.00 0.00 83 1011.4
20260508092403 50 326 2.0 3.0 0.00 0.00 0.00 83 1011.3
20260508091902 49 205 0.0 0.0 0.00 0.00 0.00 83 1011.0
20260508091358 49 151 0.0 0.0 0.00 0.00 0.00 83 1010.6
20260508090855 49 168 0.0 0.0 0.00 0.00 0.00 81 1010.7
20260508090354 49 154 0.0 0.0 0.00 0.00 0.00 82 1011.0
20260508085849 49 146 0.0 0.0 0.00 0.00 0.00 84 1010.9
20260508085346 49 157 0.0 0.0 0.00 0.00 0.00 85 1011.0
20260508084842 49 158 0.0 0.0 0.00 0.00 0.00 85 1010.9
20260508084339 49 162 0.0 0.0 0.00 0.00 0.00 85 1011.0
20260508083837 49 173 0.0 0.0 0.00 0.00 0.00 85 1010.9
20260508083335 49 150 0.0 0.0 0.00 0.00 0.00 84 1011.1
20260508082834 49 161 0.0 0.0 0.00 0.00 0.00 83 1011.0
20260508082332 50 152 0.0 0.0 0.00 0.00 0.00 84 1011.0
20260508081829 50 158 0.0 0.0 0.00 0.00 0.00 83 1010.8
20260508081326 50 154 0.0 0.0 0.00 0.00 0.00 83 1011.3
20260508080823 50 248 0.0 0.0 0.00 0.00 0.00 83 1011.3
20260508080321 50 144 0.0 0.0 0.00 0.00 0.00 84 1011.3
20260508075817 50 167 0.0 0.0 0.00 0.00 0.00 84 1011.3
20260508075314 50 174 0.0 2.0 0.00 0.00 0.00 83 1011.1
20260508074812 50 209 0.0 0.0 0.00 0.00 0.00 84 1011.4
20260508074308 51 162 3.0 6.0 0.00 0.00 0.00 83 1011.3
20260508073806 51 198 0.0 1.0 0.00 0.00 0.00 78 1011.3
20260508073304 51 187 0.0 0.0 0.00 0.00 0.00 74 1011.5
20260508072759 51 248 2.0 3.0 0.00 0.00 0.00 73 1011.4
20260508072257 51 164 0.0 0.0 0.00 0.00 0.00 73 1011.6
20260508071754 51 206 0.0 0.0 0.00 0.00 0.00 71 1011.6
20260508071252 51 245 0.0 0.0 0.00 0.00 0.00 72 1011.5
20260508070749 51 235 1.0 2.0 0.00 0.00 0.00 72 1011.5
20260508070248 51 170 0.0 0.0 0.00 0.00 0.00 71 1011.5
20260508065744 51 229 0.0 0.0 0.00 0.00 0.00 72 1011.2
20260508065242 51 214 0.0 0.0 0.00 0.00 0.00 72 1011.3
20260508064740 51 160 0.0 2.0 0.00 0.00 0.00 72 1011.2
20260508064238 51 160 0.0 0.0 0.00 0.00 0.00 72 1011.1
20260508063734 51 166 0.0 0.0 0.00 0.00 0.00 72 1010.8
20260508063232 51 204 0.0 0.0 0.00 0.00 0.00 72 1011.6
20260508062729 51 197 0.0 0.0 0.00 0.00 0.00 72 1011.4
20260508062228 51 192 0.0 0.0 0.00 0.00 0.00 73 1011.5
20260508061724 51 356 0.0 0.0 0.00 0.00 0.00 73 1011.4
20260508061221 51 168 0.0 0.0 0.00 0.00 0.00 74 1011.4
20260508060718 51 112 0.0 0.0 0.00 0.00 0.00 73 1011.4
20260508060216 51 166 0.0 0.0 0.00 0.00 0.00 73 1011.5
20260508055711 51 158 0.0 0.0 0.00 0.00 0.00 72 1011.5
20260508055208 51 184 0.0 0.0 0.00 0.00 0.00 72 1011.5
20260508054704 51 137 0.0 0.0 0.00 0.00 0.00 73 1011.3
20260508054203 51 234 0.0 0.0 0.00 0.00 0.00 74 1011.5
20260508053659 51 168 0.0 0.0 0.00 0.00 0.00 75 1011.3
20260508053157 50 161 0.0 0.0 0.00 0.00 0.00 76 1011.5
20260508052654 50 138 0.0 0.0 0.00 0.00 0.00 77 1011.4
20260508052151 50 149 0.0 0.0 0.00 0.00 0.00 78 1011.4
20260508051647 50 149 0.0 0.0 0.00 0.00 0.00 79 1011.5
20260508051142 49 142 0.0 0.0 0.00 0.00 0.00 81 1011.5
20260508050639 49 155 0.0 0.0 0.00 0.00 0.00 81 1011.5
20260508050136 49 142 0.0 0.0 0.00 0.00 0.00 81 1011.6
20260508045632 50 151 0.0 0.0 0.00 0.00 0.00 81 1011.5
20260508045130 50 157 0.0 0.0 0.00 0.00 0.00 81 1011.5
20260508044627 49 139 0.0 0.0 0.00 0.00 0.00 81 1011.5
20260508044123 49 166 0.0 0.0 0.00 0.00 0.00 82 1011.5
20260508043620 49 166 0.0 0.0 0.00 0.00 0.00 82 1011.6
20260508043118 50 153 0.0 0.0 0.00 0.00 0.00 81 1011.6
20260508042614 50 164 0.0 0.0 0.00 0.00 0.00 81 1011.6
20260508042112 49 229 0.0 0.0 0.00 0.00 0.00 82 1011.6
20260508041607 49 160 0.0 0.0 0.00 0.00 0.00 83 1011.7
20260508041104 49 155 0.0 0.0 0.00 0.00 0.00 83 1011.6
20260508040601 49 153 0.0 0.0 0.00 0.00 0.00 84 1011.6
20260508040059 49 149 0.0 0.0 0.00 0.00 0.00 84 1011.5
20260508035555 49 157 0.0 0.0 0.00 0.00 0.00 84 1011.4
20260508035053 49 153 0.0 0.0 0.00 0.00 0.00 84 1011.4
20260508034549 49 150 0.0 0.0 0.00 0.00 0.00 82 1011.6
20260508034046 49 162 0.0 0.0 0.00 0.00 0.00 82 1011.6
20260508033544 49 173 0.0 0.0 0.00 0.00 0.00 81 1011.4
20260508033042 49 162 0.0 0.0 0.00 0.00 0.00 82 1011.7
20260508032538 49 170 0.0 0.0 0.00 0.00 0.00 83 1011.5
20260508032036 48 164 0.0 0.0 0.00 0.00 0.00 85 1011.6
20260508031533 48 159 0.0 0.0 0.00 0.00 0.00 85 1011.5
20260508031029 48 157 0.0 0.0 0.00 0.00 0.00 85 1011.5
20260508030525 48 155 0.0 0.0 0.00 0.00 0.00 84 1011.4
20260508030024 49 161 0.0 0.0 0.00 0.00 0.00 84 1011.4
20260508025519 49 146 0.0 0.0 0.00 0.00 0.00 83 1011.4
20260508025016 49 165 0.0 0.0 0.00 0.00 0.00 83 1011.5
20260508024512 49 157 0.0 0.0 0.00 0.00 0.00 83 1011.5
20260508024009 50 152 0.0 0.0 0.00 0.00 0.00 84 1011.7
20260508023506 50 154 0.0 0.0 0.00 0.00 0.00 84 1011.4
20260508023004 50 161 0.0 0.0 0.00 0.00 0.00 83 1011.4
20260508022459 50 159 0.0 0.0 0.00 0.00 0.00 83 1011.3
20260508021956 50 153 0.0 0.0 0.00 0.00 0.00 83 1011.3
20260508021452 50 148 0.0 0.0 0.00 0.00 0.00 83 1011.4
20260508020948 50 152 0.0 0.0 0.00 0.00 0.00 83 1011.2
20260508020446 50 152 0.0 0.0 0.00 0.00 0.00 83 1011.3
20260508015943 50 153 0.0 0.0 0.00 0.00 0.00 84 1011.4
20260508015441 50 151 0.0 0.0 0.00 0.00 0.00 84 1011.2
20260508014937 50 150 0.0 0.0 0.00 0.00 0.00 83 1011.1
20260508014434 50 169 0.0 0.0 0.00 0.00 0.00 82 1011.1
20260508013930 50 159 0.0 0.0 0.00 0.00 0.00 83 1011.2
20260508013426 50 142 0.0 0.0 0.00 0.00 0.00 84 1011.0
20260508012924 50 147 0.0 0.0 0.00 0.00 0.00 84 1011.1
20260508012420 50 144 0.0 0.0 0.00 0.00 0.00 83 1010.8
20260508011918 50 152 0.0 0.0 0.00 0.00 0.00 84 1011.0
20260508011416 50 147 0.0 0.0 0.00 0.00 0.00 84 1010.9
20260508010913 50 178 0.0 0.0 0.00 0.00 0.00 84 1010.8
20260508010410 50 153 0.0 0.0 0.00 0.00 0.00 83 1011.0
20260508005907 50 151 0.0 0.0 0.00 0.00 0.00 83 1010.8
20260508005404 51 163 0.0 0.0 0.00 0.00 0.00 82 1011.1
20260508004900 51 153 0.0 0.0 0.00 0.00 0.00 81 1011.1
20260508004356 51 159 0.0 0.0 0.00 0.00 0.00 81 1011.1
20260508003853 51 151 0.0 0.0 0.00 0.00 0.00 81 1011.2
20260508003350 52 156 0.0 0.0 0.00 0.00 0.00 81 1011.4
20260508002848 52 163 0.0 0.0 0.00 0.00 0.00 81 1011.3
20260508002344 52 145 0.0 0.0 0.00 0.00 0.00 80 1011.3
20260508001840 51 154 0.0 0.0 0.00 0.00 0.00 81 1011.3
20260508001336 51 161 0.0 0.0 0.00 0.00 0.00 81 1011.2
20260508000832 51 166 0.0 0.0 0.00 0.00 0.00 81 1011.1
20260508000329 52 153 0.0 0.0 0.00 0.00 0.00 80 1011.4
20260507235826 53 156 0.0 0.0 0.00 0.00 0.00 78 1011.4
20260507235323 53 154 0.0 0.0 0.00 0.00 0.00 77 1011.3
20260507234820 53 138 0.0 0.0 0.00 0.00 0.00 78 1011.6
20260507234317 52 164 0.0 0.0 0.00 0.00 0.00 79 1011.4
20260507233813 52 148 0.0 0.0 0.00 0.00 0.00 80 1011.5
20260507233311 52 153 0.0 0.0 0.00 0.00 0.00 80 1011.7
20260507232809 52 240 0.0 0.0 0.00 0.00 0.00 78 1011.9
20260507232306 53 168 0.0 0.0 0.00 0.00 0.00 78 1011.7
20260507231802 53 205 0.0 0.0 0.00 0.00 0.00 78 1011.8
20260507231259 54 176 0.0 0.0 0.00 0.00 0.00 76 1011.9
20260507230755 53 236 0.0 0.0 0.00 0.00 0.00 76 1012.2
20260507230253 53 174 0.0 0.0 0.00 0.00 0.00 78 1012.1
20260507225752 52 251 0.0 0.0 0.00 0.00 0.00 79 1012.3
20260507225249 52 258 0.0 1.0 0.00 0.00 0.00 81 1012.5
20260507224744 51 204 0.0 0.0 0.00 0.00 0.00 82 1012.5
20260507224241 51 246 2.0 3.0 0.00 0.00 0.00 82 1012.4
20260507223738 50 258 2.0 3.0 0.00 0.00 0.00 83 1012.4
20260507223234 50 285 3.0 4.0 0.00 0.00 0.00 85 1012.5
20260507222731 50 284 2.0 2.0 0.00 0.00 0.00 86 1012.5
20260507222227 50 287 4.0 4.0 0.00 0.00 0.00 86 1012.6
20260507221725 50 304 2.0 2.0 0.00 0.00 0.00 83 1012.5
20260507221221 54 304 10.0 22.0 0.00 0.00 0.00 71 1012.2
20260507220717 57 268 3.0 3.0 0.00 0.00 0.00 54 1012.2
20260507220216 57 251 2.0 3.0 0.00 0.00 0.00 53 1011.7
20260507215711 57 239 0.0 0.0 0.00 0.00 0.00 51 1011.5
20260507215209 57 176 0.0 1.0 0.00 0.00 0.00 51 1011.4
20260507214706 57 192 0.0 0.0 0.00 0.00 0.00 50 1011.5
20260507214203 57 231 0.0 0.0 0.00 0.00 0.00 51 1011.2
20260507213658 58 177 0.0 0.0 0.00 0.00 0.00 50 1011.2
20260507213156 58 236 3.0 4.0 0.00 0.00 0.00 51 1011.2
20260507212652 59 252 2.0 3.0 0.00 0.00 0.00 51 1011.1
20260507212149 59 201 0.0 0.0 0.00 0.00 0.00 49 1011.4
20260507211646 58 196 0.0 0.0 0.00 0.00 0.00 50 1011.2
20260507211141 58 173 0.0 0.0 0.00 0.00 0.00 48 1011.1
20260507210639 58 256 0.0 1.0 0.00 0.00 0.00 50 1011.2
20260507210135 59 261 0.0 1.0 0.00 0.00 0.00 48 1011.3
20260507205632 58 253 1.0 1.0 0.00 0.00 0.00 53 1011.5
20260507205128 58 252 3.0 3.0 0.00 0.00 0.00 50 1011.5
20260507204625 57 240 1.0 2.0 0.00 0.00 0.00 50 1011.3
20260507204123 57 252 4.0 8.0 0.00 0.00 0.00 50 1011.4
20260507203620 58 266 1.0 2.0 0.00 0.00 0.00 47 1011.5
20260507203118 58 226 0.0 2.0 0.00 0.00 0.00 48 1011.3
20260507202613 58 258 2.0 3.0 0.00 0.00 0.00 48 1011.7
20260507202110 58 249 1.0 2.0 0.00 0.00 0.00 50 1011.3
20260507201605 58 150 1.0 2.0 0.00 0.00 0.00 54 1011.7
20260507201102 58 189 0.0 0.0 0.00 0.00 0.00 51 1011.7
20260507200557 58 164 0.0 0.0 0.00 0.00 0.00 50 1012.0
20260507200054 58 212 0.0 0.0 0.00 0.00 0.00 50 1011.9
20260507195551 58 197 0.0 0.0 0.00 0.00 0.00 50 1011.9
20260507195048 59 255 1.0 2.0 0.00 0.00 0.00 51 1012.1
20260507194544 58 201 0.0 0.0 0.00 0.00 0.00 50 1012.2
20260507194040 59 219 0.0 0.0 0.00 0.00 0.00 51 1012.3
20260507193538 58 251 0.0 2.0 0.00 0.00 0.00 49 1012.6
20260507193035 58 267 1.0 2.0 0.00 0.00 0.00 51 1012.2
20260507192531 59 146 0.0 0.0 0.00 0.00 0.00 49 1012.3
20260507192028 57 241 0.0 0.0 0.00 0.00 0.00 50 1012.5
20260507191523 57 280 0.0 0.0 0.00 0.00 0.00 49 1012.5
20260507191020 57 279 1.0 1.0 0.00 0.00 0.00 51 1012.6
20260507190518 57 283 4.0 7.0 0.00 0.00 0.00 46 1012.6
20260507190016 57 273 2.0 2.0 0.00 0.00 0.00 50 1012.8
20260507185514 58 276 1.0 2.0 0.00 0.00 0.00 49 1012.7
20260507185010 57 251 0.0 0.0 0.00 0.00 0.00 51 1012.5
20260507184509 57 282 0.0 0.0 0.00 0.00 0.00 52 1012.6
20260507184007 57 261 0.0 0.0 0.00 0.00 0.00 49 1012.8
20260507183502 58 233 0.0 0.0 0.00 0.00 0.00 51 1012.7
20260507182959 56 169 0.0 0.0 0.00 0.00 0.00 50 1012.9
20260507182455 56 212 0.0 0.0 0.00 0.00 0.00 47 1012.8
20260507181951 57 247 2.0 2.0 0.00 0.00 0.00 53 1012.8
20260507181448 56 258 0.0 1.0 0.00 0.00 0.00 51 1012.9
20260507180945 56 211 0.0 0.0 0.00 0.00 0.00 50 1012.9
20260507180441 56 252 2.0 2.0 0.00 0.00 0.00 56 1012.8
20260507175937 56 255 1.0 2.0 0.00 0.00 0.00 53 1013.4
20260507175434 56 261 2.0 3.0 0.00 0.00 0.00 50 1013.2
20260507174932 56 286 0.0 1.0 0.00 0.00 0.00 53 1013.1
20260507174429 56 259 2.0 3.0 0.00 0.00 0.00 54 1013.2
20260507173926 56 265 1.0 2.0 0.00 0.00 0.00 50 1013.5
20260507173423 55 270 0.0 0.0 0.00 0.00 0.00 50 1013.2
20260507172920 55 277 2.0 2.0 0.00 0.00 0.00 52 1013.6
20260507172417 55 256 2.0 3.0 0.00 0.00 0.00 50 1013.5
20260507171913 55 259 2.0 3.0 0.00 0.00 0.00 55 1013.7
20260507171409 54 285 1.0 1.0 0.00 0.00 0.00 54 1013.7
20260507170907 55 258 2.0 2.0 0.00 0.00 0.00 58 1014.0
20260507170403 55 285 2.0 3.0 0.00 0.00 0.00 59 1014.1
20260507165859 53 277 0.0 0.0 0.00 0.00 0.00 56 1014.2
20260507165355 53 271 2.0 3.0 0.00 0.00 0.00 53 1014.1
20260507164851 54 309 4.0 6.0 0.00 0.00 0.00 56 1014.0
20260507164348 54 280 3.0 7.0 0.00 0.00 0.00 58 1014.4
20260507163846 53 259 2.0 2.0 0.00 0.00 0.00 57 1014.5
20260507163343 54 279 2.0 3.0 0.00 0.00 0.00 54 1014.4
20260507162839 53 236 0.0 0.0 0.00 0.00 0.00 55 1014.3
20260507162335 53 298 2.0 3.0 0.00 0.00 0.00 54 1014.5
20260507161832 53 286 3.0 3.0 0.00 0.00 0.00 54 1014.6
20260507161329 53 269 3.0 4.0 0.00 0.00 0.00 57 1014.7
20260507160825 53 286 2.0 3.0 0.00 0.00 0.00 54 1014.6
20260507160321 53 270 2.0 2.0 0.00 0.00 0.00 58 1014.4
20260507155818 53 280 2.0 3.0 0.00 0.00 0.00 56 1014.5
20260507155314 53 299 2.0 3.0 0.00 0.00 0.00 54 1014.6
20260507154810 52 281 1.0 1.0 0.00 0.00 0.00 57 1014.5
20260507154308 52 266 2.0 2.0 0.00 0.00 0.00 57 1014.6
20260507153804 52 272 5.0 8.0 0.00 0.00 0.00 56 1014.6
20260507153301 52 300 2.0 3.0 0.00 0.00 0.00 53 1014.6
20260507152757 52 280 2.0 2.0 0.00 0.00 0.00 59 1014.5
20260507152254 51 278 1.0 3.0 0.00 0.00 0.00 62 1014.3
20260507151749 51 255 0.0 0.0 0.00 0.00 0.00 60 1014.3
20260507151246 51 261 0.0 0.0 0.00 0.00 0.00 57 1014.2
20260507150743 51 234 1.0 2.0 0.00 0.00 0.00 58 1014.4
20260507150240 50 266 2.0 3.0 0.00 0.00 0.00 57 1014.3
20260507145736 50 256 4.0 8.0 0.00 0.00 0.00 60 1014.2
20260507145232 50 273 4.0 6.0 0.00 0.00 0.00 62 1014.5
20260507144730 50 259 3.0 3.0 0.00 0.00 0.00 60 1014.3
20260507144227 50 305 2.0 2.0 0.00 0.00 0.00 61 1014.7
20260507143723 49 283 3.0 7.0 0.00 0.00 0.00 60 1014.5
20260507143221 50 281 2.0 2.0 0.00 0.00 0.00 62 1014.4
20260507142717 49 265 1.0 2.0 0.00 0.00 0.00 63 1014.4
20260507142213 49 275 1.0 2.0 0.00 0.00 0.00 62 1014.2
20260507141709 49 274 2.0 2.0 0.00 0.00 0.00 63 1014.3
20260507141207 49 251 2.0 3.0 0.00 0.00 0.00 60 1014.4
20260507140703 48 245 2.0 2.0 0.00 0.00 0.00 61 1014.5
20260507140201 48 274 2.0 2.0 0.00 0.00 0.00 60 1014.5
20260507135657 48 255 0.0 1.0 0.00 0.00 0.00 61 1014.5